When you browse on this site, cookies collect data to enhance your experience and personalize the content and advertising you see.
Visit our Privacy Policy to learn more. By continuing to use the site, you agree to this use of cookies and data.
  • In Spain
  • List of Countries
  • For 7 days
  • Water Temperature
  • Satellite Maps
  • Weather Map
  • Weather Widgets
  • user-avatar
    Login

    Hourly Weather Gvozdevicy

    Today, 15 July, Monday

    Time Temperature Precipitation Wind Pressure Humidity
    00:00 +13°C° 0 mm 1 mps 740 mmHg 88%
    01:00 +12°C° 0 mm 1 mps 740 mmHg 90%
    02:00 +11°C° 0 mm 1 mps 741 mmHg 90%
    03:00 +11°C° 0 mm 1 mps 741 mmHg 90%
    04:00 +11°C° 0 mm 1 mps 740 mmHg 90%
    05:00 +11°C° 0 mm 0 mps 740 mmHg 90%
    06:00 +12°C° 0 mm 0 mps 741 mmHg 86%
    07:00 +14°C° 0 mm 0 mps 741 mmHg 83%
    08:00 +15°C° 0 mm 0 mps 741 mmHg 80%
    09:00 +18°C° 0.4 mm 1 mps 741 mmHg 76%
    10:00 +19°C° 0.4 mm 1 mps 740 mmHg 72%
    11:00 +20°C° 0.4 mm 1 mps 740 mmHg 68%
    12:00 +20°C° 0.4 mm 1 mps 740 mmHg 67%
    13:00 +21°C° 0.4 mm 1 mps 740 mmHg 66%
    14:00 +21°C° 0 mm 1 mps 741 mmHg 63%
    15:00 +21°C° 0.3 mm 1 mps 741 mmHg 65%
    16:00 +21°C° 0.3 mm 1 mps 740 mmHg 67%
    17:00 +20°C° 0.3 mm 1 mps 740 mmHg 70%
    18:00 +19°C° 0.1 mm 1 mps 740 mmHg 75%
    19:00 +16°C° 0.1 mm 1 mps 740 mmHg 81%
    20:00 +14°C° 0.1 mm 1 mps 740 mmHg 86%
    21:00 +14°C° 0 mm 1 mps 740 mmHg 88%
    22:00 +13°C° 0 mm 1 mps 740 mmHg 90%
    23:00 +12°C° 0 mm 1 mps 740 mmHg 91%

    Tomorrow, 16 July, Tuesday

    Time Temperature Precipitation Wind Pressure Humidity
    00:00 +11°C° 0 mm 1 mps 740 mmHg 92%
    01:00 +11°C° 0 mm 1 mps 740 mmHg 92%
    02:00 +11°C° 0 mm 1 mps 740 mmHg 93%
    03:00 +11°C° 0 mm 1 mps 740 mmHg 94%
    04:00 +11°C° 0 mm 1 mps 740 mmHg 94%
    05:00 +11°C° 0 mm 1 mps 739 mmHg 95%
    06:00 +13°C° 0 mm 1 mps 740 mmHg 92%
    07:00 +15°C° 0 mm 1 mps 740 mmHg 88%
    08:00 +16°C° 0 mm 1 mps 740 mmHg 85%
    09:00 +18°C° 0.1 mm 1 mps 739 mmHg 80%
    10:00 +19°C° 0.1 mm 1 mps 739 mmHg 76%
    11:00 +21°C° 0.1 mm 1 mps 739 mmHg 72%
    12:00 +21°C° 0.1 mm 1 mps 739 mmHg 69%
    13:00 +22°C° 0.1 mm 1 mps 739 mmHg 67%
    14:00 +21°C° 0.1 mm 0 mps 738 mmHg 64%
    15:00 +22°C° 0.4 mm 1 mps 738 mmHg 67%
    16:00 +22°C° 0.4 mm 1 mps 738 mmHg 69%
    17:00 +22°C° 0.4 mm 1 mps 738 mmHg 71%
    18:00 +20°C° 0.3 mm 1 mps 737 mmHg 77%
    19:00 +19°C° 0.3 mm 1 mps 737 mmHg 83%
    20:00 +16°C° 0.3 mm 2 mps 737 mmHg 89%
    21:00 +15°C° 0.5 mm 2 mps 737 mmHg 91%
    22:00 +15°C° 0.5 mm 2 mps 737 mmHg 92%
    23:00 +14°C° 0.5 mm 2 mps 737 mmHg 94%

    Day after tomorrow, 17 July, Wednesday

    Time Temperature Precipitation Wind Pressure Humidity
    00:00 +14°C° 0.3 mm 1 mps 737 mmHg 94%
    01:00 +14°C° 0.3 mm 1 mps 737 mmHg 93%
    02:00 +14°C° 0.3 mm 1 mps 736 mmHg 93%
    03:00 +14°C° 0.2 mm 1 mps 736 mmHg 94%
    04:00 +14°C° 0.2 mm 1 mps 736 mmHg 94%
    05:00 +14°C° 0.2 mm 1 mps 736 mmHg 95%
    06:00 +14°C° 0.3 mm 1 mps 736 mmHg 94%
    07:00 +14°C° 0.3 mm 1 mps 736 mmHg 94%
    08:00 +15°C° 0.3 mm 1 mps 736 mmHg 94%
    09:00 +16°C° 0.3 mm 1 mps 736 mmHg 90%
    10:00 +16°C° 0.3 mm 1 mps 736 mmHg 87%
    11:00 +17°C° 0.3 mm 2 mps 735 mmHg 83%
    12:00 +18°C° 0.9 mm 2 mps 735 mmHg 82%
    13:00 +18°C° 0.9 mm 2 mps 735 mmHg 81%
    14:00 +18°C° 0.9 mm 2 mps 735 mmHg 81%
    15:00 +18°C° 0.9 mm 2 mps 735 mmHg 80%
    16:00 +19°C° 0.9 mm 1 mps 735 mmHg 80%
    17:00 +17°C° 0.9 mm 0 mps 735 mmHg 80%
    18:00 +18°C° 0.4 mm 1 mps 734 mmHg 85%
    19:00 +16°C° 0.4 mm 1 mps 734 mmHg 88%
    20:00 +15°C° 0.4 mm 1 mps 734 mmHg 91%
    21:00 +14°C° 0.1 mm 1 mps 734 mmHg 92%
    22:00 +14°C° 0.1 mm 1 mps 734 mmHg 93%
    23:00 +13°C° 0.1 mm 1 mps 734 mmHg 94%

    18 July, Thursday

    Time Temperature Precipitation Wind Pressure Humidity
    00:00 +13°C° 0 mm 1 mps 734 mmHg 95%
    01:00 +12°C° 0 mm 1 mps 734 mmHg 95%
    02:00 +12°C° 0 mm 2 mps 734 mmHg 96%
    03:00 +12°C° 0 mm 2 mps 734 mmHg 96%
    04:00 +12°C° 0 mm 2 mps 734 mmHg 97%
    05:00 +12°C° 0 mm 2 mps 734 mmHg 97%
    06:00 +13°C° 0.3 mm 2 mps 734 mmHg 95%
    07:00 +15°C° 0.3 mm 2 mps 734 mmHg 92%
    08:00 +16°C° 0.3 mm 3 mps 733 mmHg 89%
    09:00 +17°C° 1 mm 3 mps 734 mmHg 87%
    10:00 +17°C° 1 mm 4 mps 734 mmHg 86%
    11:00 +18°C° 1 mm 4 mps 734 mmHg 84%
    12:00 +17°C° 0.5 mm 4 mps 734 mmHg 85%
    13:00 +16°C° 0.5 mm 5 mps 734 mmHg 87%
    14:00 +15°C° 0.5 mm 5 mps 734 mmHg 88%
    15:00 +15°C° 0.2 mm 4 mps 734 mmHg 89%
    16:00 +15°C° 0.2 mm 4 mps 734 mmHg 90%
    17:00 +14°C° 0.2 mm 3 mps 734 mmHg 91%
    18:00 +15°C° 0 mm 2 mps 734 mmHg 93%
    19:00 +14°C° 0 mm 2 mps 734 mmHg 95%
    20:00 +14°C° 0 mm 2 mps 734 mmHg 97%
    21:00 +14°C° 0.1 mm 2 mps 734 mmHg 97%
    22:00 +13°C° 0.1 mm 2 mps 735 mmHg 98%
    23:00 +13°C° 0.1 mm 1 mps 735 mmHg 98%

    19 July, Friday

    Time Temperature Precipitation Wind Pressure Humidity
    00:00 +13°C° 0 mm 2 mps 735 mmHg 98%
    01:00 +13°C° 0 mm 2 mps 735 mmHg 98%
    02:00 +14°C° 0 mm 2 mps 735 mmHg 98%
    03:00 +14°C° 0.1 mm 2 mps 735 mmHg 98%
    04:00 +14°C° 0.1 mm 2 mps 735 mmHg 97%
    05:00 +14°C° 0.1 mm 2 mps 736 mmHg 97%
    06:00 +14°C° 0.1 mm 3 mps 736 mmHg 96%
    07:00 +16°C° 0.1 mm 3 mps 736 mmHg 95%
    08:00 +16°C° 0.1 mm 3 mps 736 mmHg 94%
    09:00 +15°C° 0.9 mm 4 mps 736 mmHg 94%
    10:00 +15°C° 0.9 mm 4 mps 737 mmHg 94%
    11:00 +15°C° 0.9 mm 4 mps 737 mmHg 95%
    12:00 +14°C° 0.4 mm 4 mps 737 mmHg 96%
    13:00 +14°C° 0.4 mm 4 mps 737 mmHg 96%
    14:00 +13°C° 0.4 mm 4 mps 738 mmHg 97%
    15:00 +13°C° 0.1 mm 4 mps 738 mmHg 97%
    16:00 +14°C° 0.1 mm 5 mps 738 mmHg 97%
    17:00 +14°C° 0.1 mm 5 mps 739 mmHg 96%
    18:00 +14°C° 0 mm 5 mps 739 mmHg 96%
    19:00 +14°C° 0 mm 4 mps 739 mmHg 96%
    20:00 +14°C° 0 mm 4 mps 739 mmHg 96%
    21:00 +14°C° 0 mm 4 mps 740 mmHg 96%
    22:00 +14°C° 0 mm 4 mps 740 mmHg 96%
    23:00 +14°C° 0 mm 4 mps 741 mmHg 95%

    20 July, Saturday

    Time Temperature Precipitation Wind Pressure Humidity
    00:00 +14°C° 0 mm 4 mps 741 mmHg 96%
    01:00 +14°C° 0 mm 4 mps 741 mmHg 97%
    02:00 +13°C° 0 mm 3 mps 741 mmHg 98%
    03:00 +13°C° 0 mm 3 mps 742 mmHg 97%
    04:00 +14°C° 0 mm 3 mps 742 mmHg 97%
    05:00 +14°C° 0 mm 3 mps 742 mmHg 96%
    06:00 +14°C° 0 mm 3 mps 743 mmHg 94%
    07:00 +16°C° 0 mm 3 mps 743 mmHg 92%
    08:00 +17°C° 0 mm 3 mps 743 mmHg 91%
    09:00 +17°C° 0.1 mm 3 mps 744 mmHg 88%
    10:00 +18°C° 0.1 mm 3 mps 744 mmHg 86%
    11:00 +19°C° 0.1 mm 3 mps 744 mmHg 83%
    12:00 +19°C° 0.4 mm 3 mps 744 mmHg 82%
    13:00 +20°C° 0.4 mm 3 mps 745 mmHg 81%
    14:00 +21°C° 0.4 mm 3 mps 745 mmHg 80%
    15:00 +21°C° 0.7 mm 4 mps 745 mmHg 81%
    16:00 +21°C° 0.7 mm 4 mps 745 mmHg 83%
    17:00 +21°C° 0.7 mm 4 mps 745 mmHg 84%
    18:00 +19°C° 0.3 mm 3 mps 745 mmHg 87%
    19:00 +18°C° 0.3 mm 3 mps 745 mmHg 89%
    20:00 +17°C° 0.3 mm 3 mps 745 mmHg 92%
    21:00 +16°C° 0 mm 2 mps 745 mmHg 93%
    22:00 +16°C° 0 mm 2 mps 746 mmHg 93%
    23:00 +15°C° 0 mm 2 mps 746 mmHg 94%
    Show more